#timestamp,LO_Frequency,Hit,StdDev 
1666515615.1,286047002.4,N
1666515635.9,286046999.2,N
1666515655.7,286047000.3,N
1666515675.5,286046996.5,N
1666515695.4,286046999.4,N
1666515715.2,286047001.2,N
1666515735.1,286047000.3,N
1666515736.0,286047000.3,N
1666515755.8,286046999.6,N
1666515775.6,286046996.6,N
1666515795.5,286046998.2,N
1666515815.3,286046999.1,N
1666515835.1,286046998.5,N
1666515855.9,286047002.8,N
1666515875.7,286046999.6,N
1666515895.6,286046998.7,N
1666515915.4,286046998.5,N
1666515935.2,286047000.7,N
1666515955.1,286046997.1,N
1666515956.0,286046997.1,N
1666515975.8,286046997.0,N
1666515995.6,286046998.8,N
1666516015.5,286046998.2,N
1666516035.3,286046998.1,N
1666516055.2,286046999.8,N
1666516075.9,286046999.8,N
1666516095.7,286047001.1,N
1666516115.6,286047000.7,N
1666516135.4,286046998.4,N
1666516155.2,286046997.6,N
1666516175.1,286046998.9,N
1666516176.0,286046998.9,N
1666516195.8,286046998.1,N
1666516215.7,286046999.3,N
1666516235.5,286046999.4,N
1666516255.3,286047000.8,N
1666516275.2,286047000.3,N
1666516295.0,286046998.7,N
1666516295.9,286046998.7,N
1666516315.7,286047000.8,N
1666516335.6,286046998.8,N
1666516355.4,286046999.8,N
1666516375.3,286047000.4,N
1666516395.1,286047001.2,N
1666516396.0,286047001.2,N
1666516415.8,286046998.2,N
1666516435.7,286047000.1,N
1666516455.5,286047001.8,N
1666516475.3,286046998.8,N
1666516495.2,286047001.8,N
1666516515.0,286047000.7,N
1666516515.9,286047000.7,N
1666516535.8,286046998.6,N
1666516555.6,286046998.6,N
1666516575.4,286046999.3,N
1666516595.3,286047000.5,N
1666516615.1,286046999.1,N
1666516635.9,286047002.0,N
1666516655.7,286046998.9,N
1666516675.5,286047000.9,N
1666516695.4,286046997.1,N
1666516715.2,286046999.2,N
1666516735.0,286046999.3,N
1666516735.9,286046999.3,N
1666516755.8,286047001.1,N
1666516775.6,286047000.7,N
1666516795.4,286047000.0,N
1666516815.3,286046997.7,N
1666516835.1,286047000.2,N
1666516855.9,286047002.4,N
1666516875.7,286047000.7,N
1666516895.5,286046996.5,N
1666516915.4,286047002.8,N
1666516935.2,286046997.8,N
1666516955.0,286046999.2,N
1666516956.0,286046999.2,N
1666516975.8,286046998.4,N
1666516995.6,286046999.8,N
1666517015.5,286046999.3,N
1666517035.3,286046999.1,N
1666517055.1,286046996.7,N
1666517075.9,286047001.0,N
1666517095.7,286046996.8,N
1666517115.5,286046998.7,N
1666517135.4,286046996.8,N
1666517155.2,286046999.0,N
1666517175.1,286046995.2,N
1666517176.0,286046995.2,N
1666517195.8,286046996.6,N
1666517215.6,286046998.4,N
1666517235.5,286047001.6,N
1666517255.3,286047000.8,N
1666517275.2,286046999.3,N
1666517295.9,286046998.5,N
1666517315.7,286046999.3,N
1666517335.6,286046999.5,N
1666517355.4,286046999.4,N
1666517375.2,286046998.9,N
1666517395.1,286046997.2,N
1666517396.0,286046997.2,N
1666517415.8,286046999.4,N
1666517435.7,286046996.6,N
1666517455.5,286046999.1,N
1666517475.3,286046996.9,N
1666517495.2,286047014.3,Y
1666517515.0,286047016.4,P
1666517515.9,286047016.4,N
1666517535.8,286047014.7,N
1666517555.6,286047013.0,N
1666517575.4,286047013.3,N
1666517595.3,286047012.8,N
1666517615.1,286047011.0,N
1666517616.0,286047011.0,N
1666517635.8,286047013.6,N
1666517655.7,286047011.2,N
1666517675.5,286047012.1,N
1666517695.3,286047011.8,N
1666517715.2,286047012.0,N
1666517735.0,286047000.8,N
1666517735.9,286047000.8,N
1666517755.8,286046997.4,N
1666517775.6,286046997.9,N
1666517795.4,286046999.3,N
1666517815.3,286047000.0,N
1666517835.1,286047001.5,N
1666517855.8,286047002.8,N
1666517875.7,286047002.2,N
1666517895.5,286047000.8,N
1666517915.4,286046999.1,N
1666517935.2,286046998.5,N
1666517955.0,286046997.0,N
1666517955.9,286046997.0,N
1666517975.8,286046999.6,N
1666517995.6,286046998.5,N
1666518015.4,286046998.2,N
1666518035.3,286046998.6,N
1666518055.1,286046999.5,N
1666518075.9,286047000.0,N
1666518095.7,286046999.0,N
1666518115.5,286047000.1,N
1666518135.4,286047000.8,N
1666518155.2,286046998.1,N
1666518175.0,286046998.3,N
1666518175.9,286046998.3,N
1666518195.8,286046998.2,N
1666518215.6,286046996.9,N
1666518235.5,286046999.9,N
1666518255.3,286046998.8,N
1666518275.1,286047000.2,N
1666518295.9,286046998.9,N
1666518315.7,286046996.9,N
1666518335.5,286047000.0,N
1666518355.4,286047000.7,N
1666518375.2,286047000.4,N
1666518395.1,286046998.9,N
1666518396.0,286046998.9,N
1666518415.8,286046997.4,N
1666518435.6,286046999.2,N
1666518455.5,286046996.5,Y
1666518475.3,286046996.5,P
1666518495.2,286046997.2,N
1666518515.9,286047000.7,N
1666518535.7,286046999.5,N
1666518555.6,286046996.7,N
1666518575.4,286046999.1,N
1666518595.2,286046998.9,N
1666518615.1,286047000.3,N
1666518616.0,286047000.3,N
1666518635.8,286046998.2,N
1666518655.7,286046999.0,N
1666518675.5,286046998.2,N
1666518695.3,286046999.6,N
1666518715.2,286047001.1,N
1666518735.9,286046999.1,N
1666518755.7,286046999.3,N
1666518775.6,286046996.8,N
1666518795.4,286046998.9,N
1666518815.2,286047000.8,N
1666518835.1,286046999.3,N
1666518836.0,286046999.3,N
1666518855.8,286046995.0,Y
1666518875.7,286047002.7,P
1666518895.5,286046998.8,N
1666518915.3,286047000.8,N
1666518935.2,286046998.6,N
1666518955.0,286047002.1,N
1666518955.9,286047002.1,N
1666518975.8,286047000.7,N
1666518995.6,286046995.5,N
1666519015.4,286046998.6,N
1666519035.3,286047000.7,N
1666519055.1,286046998.7,N
1666519075.8,286046996.9,N
1666519095.7,286047000.7,N
1666519115.5,286046998.4,N
1666519135.4,286046998.5,N
1666519155.2,286046998.1,N
1666519175.0,286046998.1,N
1666519175.9,286046998.1,N
1666519195.8,286047001.0,N
